Regional Weather Roundup
Issued by NWS

Home | Current Version | Previous Version | Text Only | Print | Product List | Glossary On
Versions: 1 2 3 4 5 6 7 8 9 10 11 12 13 14 15 16 17 18 19 20 21 22 23 24 25 26 27 28 29 30 31 32 33 34 35 36 37 38 39 40 41 42 43 44 45 46 47 48 49 50
000
ASPQ40 PGUM 290412
RWRPQ
WEATHER ROUNDUP FOR THE MARIANAS AND MICRONESIA
NATIONAL WEATHER SERVICE TIYAN GU
200 PM CHST SAT NOV 29 2014

GUZ001>004-290500-
MARIANA ISLANDS-

CITY           SKY/WX    TMP DP  RH WIND       PRES   REMARKS
GUAM AIRPORT   PTSUNNY   88  73  62 E16G24    29.80F HX  96
ANDERSEN AFB   PTSUNNY   84  73  70 E20       29.81F HX  91
ROTA AIRPORT   MOSUNNY   84  75  74 NE16G23   29.81F HX  92
TINIAN AP      MOSUNNY   84  77  79 E17       29.80F HX  94
SAIPAN AP      MOSUNNY   86  75  70 E18G25    29.82F HX  95

$$

PMZ161-290500-
REPUBLIC OF PALAU-

CITY           SKY/WX    TMP DP  RH WIND       PRES   REMARKS
KOROR AP       PTSUNNY   86  79  79 E14G21    29.77F HX  99
KOROR WSO      PTSUNNY   88  77  70 E13       29.74F HX 100

$$

PMZ171>174-290500-
FEDERATED STATES OF MICRONESIA-

CITY           SKY/WX    TMP DP  RH WIND       PRES   REMARKS
YAP AIRPORT    CLOUDY    86  79  79 NE9       29.75F HX  99
CHUUK AP       CLOUDY    84  79  84 NE12      29.67F HX  96
POHNPEI AP     LGT RAIN  84  77  79 S12       29.65  HX  94
POHNPEI WSO    LGT RAIN  84  79  84 E6        29.69F HX  96
KOSRAE AP      NOT AVBL

$$

PMZ181-290500-
REPUBLIC OF THE MARSHALL ISLANDS-

CITY           SKY/WX    TMP DP  RH WIND       PRES   REMARKS
KWAJALEIN AP   MOSUNNY  N/A N/A N/A MISG      29.67F
MAJURO AP      NOT AVBL
MAJURO WSO     RAIN      77  73  88 E9        29.66F

$$



USA.gov is the U.S. government's official web portal to all federal, state and local government web resources and services.